Regional Weather Roundup
Issued by NWS

Home | Current Version | Previous Version | Text Only | Print | Product List | Glossary Off
Versions: 1 2 3 4 5 6 7 8 9 10 11 12 13 14 15 16 17 18 19 20 21 22 23 24 25 26 27 28 29 30 31 32 33 34 35 36 37 38 39 40 41 42 43 44 45 46 47 48 49 50

000
ASUS45 KBOU 171107
RWRCO

WEATHER ROUNDUP FOR COLORADO
NATIONAL WEATHER SERVICE DENVER/BOULDER CO
500 AM MDT TUE OCT 17 2017

NOTE: "FAIR" INDICATES FEW OR NO CLOUDS BELOW 12000 FEET WITH NO
SIGNIFICANT WEATHER AND/OR OBSTRUCTIONS TO VISIBILITY.

COZ001>005-013-030-031-171200-
...NORTHWEST COLORADO...

CITY           SKY/WX    TMP DP  RH WIND       PRES   REMARKS
CRAIG          FAIR      20  14  77 CALM      30.40S
HAYDEN         FAIR      32  12  43 E10       30.41S WCI  24
MEEKER         FAIR      27  14  58 CALM      30.40S
RABBIT EARS PA FAIR      34   1  25 NW7       30.53S WCI  28
STEAMBOAT SPGS FAIR      27  11  51 CALM      30.42S
WALDEN         FAIR      21   9  58 CALM      30.45R
$$

COZ006>008-011-171200-
...WEST CENTRAL VALLEYS...

CITY           SKY/WX    TMP DP  RH WIND       PRES   REMARKS
GRAND JUNCTION FAIR      36  12  37 E6        30.36S
MONTROSE       FAIR      30  17  58 SE7       30.42S WCI  23
EAGLE          FAIR      23  15  71 SE5       30.49R WCI  17
RIFLE          FAIR      30  15  53 SE3       30.41S
DELTA          FAIR      36  10  34 CALM      30.40S
NUCLA          FAIR      34  10  37 CALM      30.43S
$$

COZ017>023-064>068-171200-
...SOUTHWEST COLORADO...

CITY           SKY/WX    TMP DP  RH WIND       PRES   REMARKS
DURANGO        FAIR      30  15  53 CALM      30.41S
CORTEZ         FAIR      27  15  61 E6        30.39S WCI  20
PAGOSA SPRINGS FAIR      30  14  52 CALM      30.45S
TELLURIDE      NOT AVBL
WOLF CREEK PAS FAIR      32   5  32 SW15      30.65S WCI  22
$$

COZ009-010-012-014-032>034-037-058>063-171200-
...CENTRAL COLORADO...

CITY           SKY/WX    TMP DP  RH WIND       PRES   REMARKS
ASPEN          FAIR      27  10  49 S7        30.45S WCI  19
BUENA VISTA    FAIR      33   5  31 W3        30.45S
COPPER MTN     FAIR      36 -24   7 W9        30.60S
BERTHOUD PASS  FAIR      27  18  69 NW24G31   30.58S WCI  12
COTTONWOOD PAS FAIR      46  -9   9 W13G22    30.50S
GUNNISON       FAIR      18   9  68 CALM      30.52R
KREMMLING      FAIR      23  16  74 CALM      30.49S
LEADVILLE      FAIR      23  -2  33 NE3       30.51S
MONARCH PASS   FAIR      32  -4  21 W22       30.70R WCI  19
SALIDA         NOT AVBL
SUNLIGHT       FAIR      36  -8  15 SW7       30.59S
WILKERSON PASS FAIR      37 -17   9 W9G17     30.57R
$$

COZ069>075-171200-
...SAN LUIS VALLEY/SANGRE DE CRISTO MOUNTAINS...

CITY           SKY/WX    TMP DP  RH WIND       PRES   REMARKS
ALAMOSA        FAIR      23  15  71 CALM      30.43S
DEL NORTE      FAIR      38  12  34 W16       30.46R
LA VETA PASS   FAIR      37  12  35 MISG      30.59S
SAGUACHE       FAIR      32   9  37 N10       30.45S WCI  24
$$

COZ035-036-038>040-171200-
...NORTHERN COLORADO FRONT RANGE...

CITY           SKY/WX    TMP DP  RH WIND       PRES   REMARKS
DENVER INTL AP FAIR      48  12  23 SW15      30.24F
DMNS CITY PARK   N/A     44  14  29 SE10      30.26S
AURORA         PTCLDY    44  13  28 S12       30.26F
FRONT RANGE AP FAIR      50  14  23 S10G20    30.26S
ERIE MUNI ARPT FAIR      32  25  76 S3        30.30R
BOULDER MUN AP FAIR      43  18  36 NE5       30.25R
CENTENNIAL     FAIR      42  11  28 S8        30.27S
BROOMFIELD     FAIR      43  19  39 SW3       30.26R
FORT COLLINS   FAIR      38  24  57 N3        30.25S
LONGMONT       FAIR      35  23  61 CALM      30.27R HAZE
$$

COZ041-046-047-076>085-087-088-171200-
...PIKES PEAK/PALMER DIVIDE AND SOUTHERN FOOTHILLS...

CITY           SKY/WX    TMP DP  RH WIND       PRES   REMARKS
COLO. SPRINGS  FAIR      42  15  33 N8        30.30S
A. F. ACADEMY  FAIR      31  10  41 N9        30.31S WCI  23
SCHRIEVER AFB  FAIR      50  10  20 N7        30.30S
CHEYENNE MTN   FAIR      53  10  18 NW6       30.27S
ELLICOTT       FAIR     N/A N/A N/A E7        30.27F
FALCON         FAIR      40  11  29 NW5       30.34S
FORT CARSON    FAIR      45  11  25 N8        30.27R
LIMON          FAIR      31  21  66 NW5       30.26S WCI  26
MONUMENT HILL  FAIR      32  12  43 S7        30.35R WCI  26
CANON CITY     CLEAR     52   9  17 W12       30.27R
WALSENBURG     FAIR      54  10  17 W18       30.29R
TRINIDAD       FAIR      44  17  33 W15       30.26S
$$

COZ042>045-048>051-090-091-171200-
...NORTHEAST COLORADO...

CITY           SKY/WX    TMP DP  RH WIND       PRES   REMARKS
GREELEY ARPT   FAIR      31  27  85 CALM      30.25R
AKRON          FAIR      45  19  35 W9        30.21S
BURLINGTON     FAIR      37  27  67 W8        30.19S
WRAY           FAIR      34  28  80 W6        30.19R WCI  29
YUMA           NOT AVBL
STERLING       FAIR      32  28  86 SW6       30.20S WCI  26
HOLYOKE        FAIR      37  30  75 W9        30.18S
FORT MORGAN    FAIR      35  25  65 W15       30.22S WCI  25
$$

COZ086-089-092>099-171200-
...SOUTHEAST COLORADO...

CITY           SKY/WX    TMP DP  RH WIND       PRES   REMARKS
PUEBLO         FAIR      45  18  34 SW5       30.23R
LA JUNTA       FAIR      40  28  62 W13       30.20R
LAMAR          FAIR      33  30  88 SW8       30.16S WCI  26
SPRINGFIELD      N/A     43  33  68 NW14      30.17R
$$



USA.gov is the U.S. government's official web portal to all federal, state and local government web resources and services.